Regional Weather Roundup
Issued by NWS

Home | Current Version | Previous Version | Text Only | Print | Product List | Glossary On
Versions: 1 2 3 4 5 6 7 8 9 10 11 12 13 14 15 16 17 18 19 20 21 22 23 24 25 26 27 28 29 30 31 32 33 34 35 36 37 38 39 40 41 42 43 44 45 46 47 48 49 50
654
ASUS43 KDTX 290510
RWRMI
MICHIGAN HOURLY REGIONAL WEATHER ROUNDUP
NATIONAL WEATHER SERVICE DETROIT/PONTIAC MI
100 AM EDT WED MAR 29 2017

NOTE: "FAIR" INDICATES FEW OR NO CLOUDS BELOW 12,000 FEET WITH NO
SIGNIFICANT WEATHER AND/OR OBSTRUCTION TO VISIBILITY.

MIZ047>049-052>055-059>063-066>070-074>076-081>083-290600-
SOUTHEAST LOWER MICHIGAN

CITY           SKY/WX    TMP DP  RH WIND       PRES   REMARKS
ADRIAN         CLEAR     36  33  89 N6        30.22S WCI  31
ALMA           PTCLDY    33  33 100 CALM      30.26S
ANN ARBOR      CLEAR     36  32  85 N3        30.22R
BAD AXE        CLEAR     29  28  96 CALM      30.25R
CARO           CLEAR     29  29  99 CALM      30.25R
DETROIT CITY   CLEAR     37  32  82 N6        30.23R WCI  32
DETROIT        CLEAR     39  32  76 NE7       30.23S WCI  34
FLINT          CLEAR     33  29  85 CALM      30.24S
GROSSE ILE     CLEAR     38  32  79 N6        30.22R WCI  33
HILLSDALE      CLEAR     32  32 100 CALM      30.20S
HOWELL         CLEAR     35  32  89 CALM      30.23R

CITY           SKY/WX    TMP DP  RH WIND       PRES   REMARKS
JACKSON        LGT RAIN  34  32  92 CALM      30.22S
LAMBERTVILLE   CLEAR     38  36  90 CALM      30.22R
LANSING        CLEAR     37  33  85 CALM      30.25R
LAPEER         FAIR      31  30  99 CALM      30.24R
MASON          CLEAR     34  33  98 CALM      30.24R
MONROE         CLEAR     36  35  98 CALM      30.22R
MT. CLEMENS    CLEAR     33  31  92 N5        30.21S WCI  28
PONTIAC        CLEAR     35  30  82 N6        30.21S WCI  30
PORT HOPE        N/A     30  29  96 W3        30.23R
PORT HURON     CLEAR     32  28  86 CALM      30.24R
TRI CITIES     CLEAR     33  31  92 N5        30.27R WCI  29
MIDLAND        FAIR      31  30  96 CALM      30.26S
TROY           CLEAR     38  31  77 N3        30.24S
SAGINAW HB     CLEAR     32  30  93 CALM      30.26R
$$
MIZ043>046-050>051-056>058-064>065-071>073-077>080-290600-
SOUTHWEST LOWER MICHIGAN

CITY           SKY/WX    TMP DP  RH WIND       PRES   REMARKS
BATTLE CREEK   CLEAR     35  34  96 CALM      30.23S
BENTON HARBOR  PTCLDY    33  31  92 CALM      30.23S
BIG RAPIDS     CLEAR     38  35  86 CALM      30.25S
COLDWATER      FOG       34  34 100 CALM      30.21F VSB 1
FREMONT        FAIR      36  36  99 E3        30.23S
HOLLAND        CLEAR     32  30  92 CALM      30.24F
GRAND RAPIDS   CLEAR     36  35  96 E3        30.24R
IONIA          FAIR      37  34  87 NE3       30.24S
KALAMAZOO      CLEAR     34  32  92 CALM      30.23R
LUDINGTON      CLEAR     29  29 100 SE5       30.24S WCI  24
MARSHALL       CLEAR     35  34  98 CALM      30.22F
MOUNT PLEASANT CLEAR     34  32  94 CALM      30.26R
MUSKEGON       CLEAR     32  31  96 S3        30.24S
SOUTH HAVEN    CLEAR     31  30  98 CALM      30.23F
$$
MIZ016>042-290600-
NORTHERN LOWER MICHIGAN

CITY           SKY/WX    TMP DP  RH WIND       PRES   REMARKS
ALPENA         CLEAR     31  28  89 W5        30.25R WCI  26
BEAVER ISLAND  CLEAR     27  27 100 CALM      30.28S
BELLAIRE       CLEAR     30  28  95 CALM      30.27S
CADILLAC       CLEAR     30  29  96 CALM      30.23F
CHARLEVOIX     PTCLDY    31  31 100 CALM      30.30S
FRANKFORT      CLEAR     31  28  88 CALM      30.25F
GAYLORD        CLEAR     31  25  78 CALM      30.24S
GRAYLING       CLEAR     27  25  93 CALM      30.26S
HARBOR SPRINGS CLEAR     28  28  99 CALM      30.27S
HOUGHTON LAKE  CLEAR     31  29  92 CALM      30.25S
MANISTEE       CLEAR     34  31  88 E6        30.24S WCI  29
OSCODA         CLEAR     28  26  90 SW6       30.24S WCI  22
PELLSTON       CLEAR     30  27  88 CALM      30.27R
ROGERS CITY    CLEAR     37  30  74 NW5       30.27R WCI  34
TRAVERSE CITY  CLEAR     30  28  92 CALM      30.26S
$$
MIZ007>008-015-290600-
EASTERN UPPER MICHIGAN

CITY           SKY/WX    TMP DP  RH WIND       PRES   REMARKS
KINROSS        CLEAR     28  27  96 W7        30.26R WCI  21
MACKINAC ISLAN CLEAR     32  32 100 NW6       30.27R WCI  26
NEWBERRY       CLEAR     32  31  97 N8        30.27R WCI  25
S. S. MARIE    CLEAR     30  28  92 W5        30.26R WCI  25
MUNISING         N/A     31  30  96 CALM      30.31R
$$
MIZ004>006-011>014-085-290600-
CENTRAL UPPER MICHIGAN

CITY           SKY/WX    TMP DP  RH WIND       PRES   REMARKS
MANISTIQUE     CLEAR     32  31  98 N7        30.28S WCI  25
ESCANABA       CLEAR     27  27 100 CALM      30.29S
MENOMINEE        N/A    N/A N/A N/A MISG        N/A
SAWYER-GWINN   CLEAR     28  27  95 N5        30.30S WCI  23
$$
MIZ001>003-009>011-084-290600-
WESTERN UPPER MICHIGAN

CITY           SKY/WX    TMP DP  RH WIND       PRES   REMARKS
IRON MOUNTAIN  PTCLDY    30  24  78 N5        30.26S WCI  25
HOUGHTON       CLEAR     34  21  59 NE7       30.30R WCI  28
COPPER HARBOR    N/A     30  27  88 CALM      30.33R
IRONWOOD       CLEAR     36  27  69 E7        30.26S WCI  30
$$

ABBREVIATIONS USED IN REMARKS
   TC - TEMPERATURE IN CELSIUS
  WCI - WIND CHILL INDEX
   HX - HEAT INDEX
  VSB - VISIBILITY





USA.gov is the U.S. government's official web portal to all federal, state and local government web resources and services.